Retour au catalogue

COSMOS 2251 DEB

LostLEO
NORAD 47071·DEBRIS·🇷🇺 Russia

Lancé Jun 16, 1993 depuis Plesetsk Cosmodrome

Loading…

Prochains Passages (prochaines 24 heures)

TLE

PériméSource: Space-Track

Époque: Jul 24, 2026, 07:21 UTC

1 47071U 93036BYB 26205.30639758  .00017210  00000-0  35821-2 0  9998
2 47071  73.8020 190.2918 0082527  16.6295 343.7543 14.57868038643534

Suivez COSMOS 2251 DEB en temps réel avec AllMySat

Download on the App Store